TIANWANG 1B (TW-1B)
1 40927U 15051C   19127.56174378  .00011420  00000-0  18247-3 0  9998
2 40927  97.1424 173.2535 0008980 164.8291 330.5849 15.53288813203475
TIANWANG 1A (TW-1A)
1 40928U 15051D   19127.39876225  .00003463  00000-0  87242-4 0  9990
2 40928  97.1498 159.6377 0009808 219.0578 193.1006 15.40514644202668
LAPAN A2
1 40931U 15052B   19126.25639490  .00000526  00000-0 -15906-4 0  9996
2 40931   5.9995   6.3232 0013725 262.6189  97.2520 14.76603922194834
LQSAT
1 40958U 15057A   19127.17795017  .00000017  00000-0  10355-4 0  9997
2 40958  97.9011 197.5157 0018608  22.3055 337.8958 14.73075948192542
CHUBUSAT 2
1 41338U 16012B   19127.17378849  .00000341  00000-0  19914-4 0  9992
2 41338  31.0037  54.9708 0013675  42.0367 318.1316 15.00134256176523
CHUBUSAT 3
1 41339U 16012C   19127.21480164  .00000324  00000-0  18433-4 0  9998
2 41339  31.0100  52.8595 0013338  49.3972 310.7823 15.00311102176522
OUFTI-1
1 41458U 16025C   19127.19191498  .00002865  00000-0  14844-3 0  9993
2 41458  98.1003 211.8817 0167939 139.7250 221.6559 15.05660034166187
E-STAR-2
1 41459U 16025D   19127.19835884  .00001699  00000-0  90443-4 0  9992
2 41459  98.0997 211.5771 0168981 140.7533 220.6139 15.05309408166154
AAUSAT 4
1 41460U 16025E   19127.29281669  .00003509  00000-0  17807-3 0  9995
2 41460  98.0989 212.8138 0159907 133.7503 227.7094 15.07148729166286
NUSAT 1
1 41557U 16033B   19127.51962593  .00001376  00000-0  54419-4 0  9999
2 41557  97.4172 215.2689 0015604  87.9100 272.3925 15.27101446163650
BEESAT 4
1 41619U 16040W   19126.74484574  .00001233  00000-0  55337-4 0  9990
2 41619  97.3710 189.7625 0011793 166.2764 193.8795 15.22998238147329
PRATHAM
1 41783U 16059A   19127.12681789  .00000063  00000-0  21459-4 0  9990
2 41783  98.0711 187.6398 0034227 155.8312 204.4505 14.62987985139323
ALSAT 1N
1 41789U 16059G   19127.28842935  .00000097  00000-0  27277-4 0  9996
2 41789  98.0732 189.6986 0029134 144.9876 215.3254 14.64235067139446
NAYIF 1
1 42017U 17008BX  19126.86329234 +.00001420 +00000-0 +59078-4 0  9996
2 42017 097.4059 194.3941 0005224 334.9647 025.1337 15.25394366123393
MAX VALIER SAT
1 42778U 17036P   19126.72777394 +.00000858 +00000-0 +40602-4 0  9997
2 42778 097.3583 185.3324 0012908 023.5332 336.6493 15.21926778103702
